STARLINK-30111 (56302 NORAD) Tracking and Keplerian Element Data

This shows tracking and keplerian element data for the satellite.

Feedback or suggestion? Click here.




ElementValue
Catalog56302
NameSTARLINK-30111
Epoch Orbit325
Epoch Day127.25001157
Epoch Year2023
RAAN97.2564
Inclination43.0024
Eccentricity0.0001234
Argument of Perigee264.9397
Mean Anonmoly330.9254
Mean Motion15.51918587
Decay Rate-0.00637609
L11 56302U 23056S 23127.25001157 -.00637609 00000+0 -11222-1 0 9999
L22 56302 43.0024 97.2564 0001234 264.9397 330.9254 15.51918587 3250



Live tracking and technical data element details for STARLINK-30111 (NORAD 56302). STARLINK-30111 can be tracked NOW for your location showing map with azimuth and elevation plus other details from your city location.







IsCatalogInMostPopularTable: catalog: 56302, numindb: 4
Update: records affected: 1



GetName: 56302 STARLINK-30111

Hit Count: updated at: Sun, 04 Jun 2023 23:10:48 GMT